Starlink 35106

operational
NORAD ID: 65739 Int'l Des: 2025-216 Owner: SPXS Country: US Constellation: starlink
LEOCIRCULAR

About Starlink 35106

Description loading...

Live Position

Loading 3D Globe...

Upcoming Passes

Altitude History

Altitude vs Time

uPlot chart will show altitude changes over time

Two-Line Element Set

1 65739U 25216F 26063.01542703 .00033657 00000-0 11420-2 0 9999
2 65739 53.1629 359.3283 0001312 118.0217 242.0917 15.30237704 25642
Epoch: Mar 4, 2026 • Age: 24 hours

Current Status

Altitude 475.5 km
Velocity 7.63 km/s
Sub-Earth Point 6.45°N, 161.91°W
Launch Date Sep 25, 2025
Age 0.4 years
Type internet

Technical Details

Classification Payload
Mass 575.00 kg
Dry Mass 530.00 kg
Total Mass 575.00 kg
Length 0.30 m
Diameter 4.10 m
Span 29.00 m
Shape Box + pan
Manufacturer SPXS
Bus Type Starlink V2MO
Phase Status In Orbit
Owner/State SPXS/US

Large Constellations

Loading constellations...